Tracking 19908 objects as of 18-Oct-2019
HD Live streaming from Space Station
objects crossing your sky now

CZ-4 DEB

Track CZ-4 DEB now!
10-day predictions


NORAD ID: 28068
Int'l Code: 1999-057MY
Perigee: 686.3 km
Apogee: 816.9 km
Inclination: 98.6 °
Period: 99.7 minutes
Semi major axis: 7122 km
RCS: 0.0099 m2 (small)
Launch date: October 14, 1999
Source: People's Republic of China (PRC)
Launch site: Taiyaun Space Center, China (TSC)

Note: This is SATELLITE DEBRIS
aabbcc
Your satellite tracking list
Your tracking list is empty




NASA's NSSDC Master Catalog

Two Line Element Set (TLE):
1 28068U 99057MY  19291.15256772  .00000244  00000-0  81122-4 0  9999
2 28068  98.6394 275.3748 0091675  32.6102 328.0704 14.44253778867564
Source of the keplerian elements: AFSPC